Terminal Aerodrome Forecast
Issued by NWS

Home | Current Version | Previous Version | Graphics & Text | Print | Product List | Glossary On
Versions: 1 2 3 4 5 6 7 8 9 10 11 12 13 14
000
FTUS43 KIWX 281000 AAA
TAFSBN
TAF AMD
KSBN 281001Z 2810/2906 00000KT P6SM BKN250
      TEMPO 2811/2813 5SM BR
     FM281400 35004KT P6SM SCT250=

USA.gov is the U.S. government's official web portal to all federal, state and local government web resources and services.